Location: Falniów
(50.3639°N, 19.9642°E)
Time: 23:27:01
(UTC+00:00)

SL-8 Rocket - Visible Passes

Search period start: 18 April 2026 00:00
Search period end: 28 April 2026 00:00
Orbit: 957 x 988 km, 82.9° (Epoch: 18 April)

Date Brightness Start Highest point End Pass type
(mag) Time Alt. Az. Time Alt. Az. Time Alt. Az.
18 Apr 4.2 18:51:39 10° SSW 18:57:54 78° W 19:04:16 10° N visible
18 Apr 6.6 20:40:26 10° W 20:44:23 17° WNW 20:48:22 10° NNW visible
19 Apr 5.0 19:16:34 10° SSW 19:22:36 49° WNW 19:28:44 10° N visible
19 Apr 7.0 21:08:27 10° WNW 21:09:42 11° NW 21:10:57 10° NW visible
20 Apr 5.9 19:42:00 10° SW 19:47:28 31° WNW 19:53:01 10° N visible
21 Apr 4.1 18:20:00 10° S 18:26:16 89° E 18:32:38 10° N visible
21 Apr 6.6 20:08:03 10° WSW 20:12:32 20° WNW 20:17:03 10° NNW visible
22 Apr 4.8 18:44:45 10° SSW 18:50:54 58° WNW 18:57:09 10° N visible
22 Apr 7.0 20:35:10 10° WNW 20:37:47 13° NW 20:40:24 10° NNW visible
23 Apr 5.7 19:10:00 10° SW 19:15:43 36° WNW 19:21:31 10° N visible
24 Apr 7.6 02:31:57 10° NE 02:33:19 11° NE 02:34:41 10° ENE visible
24 Apr 6.5 19:35:49 10° WSW 19:40:43 23° WNW 19:45:39 10° N visible
25 Apr 6.9 20:02:27 10° W 20:05:53 15° NW 20:09:21 10° NNW visible
26 Apr 5.5 18:38:03 10° SW 18:43:59 42° WNW 18:49:59 10° N visible
27 Apr 6.4 19:03:39 10° WSW 19:08:54 27° WNW 19:14:13 10° N visible
